Location: Hartford
(41.7640°N, 72.6860°W)
Time: 09:45:52
(UTC-05:00)

Amateur Radio Satellites - All Passes

Search period start: 23 January 2017 09:15
Search period end: 24 January 2017 09:15
Location: Hartford, 41.7640°N, 72.6860°W

Satellite Date Start Highest point End Downlink Frequencies (MHz)
Time Altitude Azimuth
DELFI C3 23 Jan 09:23:21 09:27:18 55° 100° (E) 09:31:10 145.870
JAS-2 23 Jan 09:33:11 09:38:22 49° 69° (ENE) 09:44:09 435.910
PCSat 23 Jan 09:36:25 09:41:37 47° 247° (WSW) 09:46:46 145.827
QB50P1 23 Jan 09:36:50 09:39:23 16° 64° (ENE) 09:41:58 145.935-145.965
CUBEBUG 2 23 Jan 09:36:55 09:39:04 14° 296° (WNW) 09:41:14 437.445
POLYITAN 1 23 Jan 09:41:41 09:44:33 18° 65° (ENE) 09:47:25 437.675
QB50P2 23 Jan 09:42:50 09:45:53 20° 66° (ENE) 09:48:57 145.880/145.840
FUNcube-1 23 Jan 09:43:45 09:47:32 28° 291° (WNW) 09:51:21 145.935
HUMSAT D 23 Jan 09:50:57 09:55:13 63° 101° (E) 09:59:29 437.325/437.525
UWE-3 23 Jan 09:58:50 10:00:44 13° 297° (WNW) 10:02:39 435.000/436.395/437.385
ESTCUBE 1 23 Jan 10:02:16 10:02:42 10° 89° (E) 10:03:08 437.505/2401.250
POPSAT HIP 1 23 Jan 10:02:51 10:06:27 29° 69° (ENE) 10:10:05 437.405
DUCHIFAT 1 23 Jan 10:09:33 10:13:10 29° 69° (ENE) 10:16:49 145.980
ZACube-1 23 Jan 10:09:44 10:12:19 15° 296° (WNW) 10:14:54 437.345
NANOSAT C BR1 23 Jan 10:16:31 10:20:24 38° 71° (ENE) 10:24:17 145.865
RS-15 23 Jan 10:18:05 10:26:41 23° 261° (W) 10:35:07 29.354- 29.394
UNISAT 6 23 Jan 10:25:11 10:27:40 15° 268° (W) 10:30:10 437.425
BY70-1 23 Jan 10:25:28 10:28:18 28° 96° (E) 10:30:55 436.1900
BUGSAT 1 23 Jan 10:31:54 10:34:44 19° 66° (ENE) 10:37:35 437.445
CUBEBUG 1 23 Jan 10:36:07 10:38:21 14° 91° (E) 10:40:34 437.445
TIGRISAT 23 Jan 10:38:32 10:40:06 12° 270° (W) 10:41:41 435.000
Cosmos 2491 23 Jan 10:40:17 10:45:00 15° 58° (ENE) 10:49:43 435.465 / 435.565
DELFI C3 23 Jan 10:59:56 11:01:36 12° 297° (WNW) 11:03:17 145.870
AISAT 23 Jan 11:00:38 11:03:28 17° 92° (E) 11:06:15 437.250
Oscar 19 23 Jan 11:06:44 11:09:56 17° 61° (ENE) 11:13:10 437.125/150
QB50P1 23 Jan 11:10:46 11:14:47 45° 261° (W) 11:18:50 145.935-145.965
POLYITAN 1 23 Jan 11:16:07 11:20:02 39° 262° (W) 11:24:00 437.675
QB50P2 23 Jan 11:17:35 11:21:26 35° 263° (W) 11:25:19 145.880/145.840
JAS-2 23 Jan 11:19:44 11:23:53 22° 270° (W) 11:28:22 435.910
HUMSAT D 23 Jan 11:28:21 11:30:17 13° 297° (WNW) 11:32:14 437.325/437.525
VELOX 1 23 Jan 11:32:53 11:36:54 35° 97° (E) 11:40:55 145.980
ESTCUBE 1 23 Jan 11:35:29 11:40:02 76° 285° (WNW) 11:44:32 437.505/2401.250
SPROUT 23 Jan 11:37:19 11:41:02 29° 96° (E) 11:44:46 437.525
POPSAT HIP 1 23 Jan 11:38:51 11:42:13 23° 265° (W) 11:45:36 437.405
DUCHIFAT 1 23 Jan 11:45:33 11:48:51 23° 265° (W) 11:52:10 145.980
Gurwin Techsat 1B 23 Jan 11:46:08 11:50:02 21° 63° (ENE) 11:53:55 435.225
UKube-1 23 Jan 11:47:32 11:50:23 17° 93° (E) 11:53:12 .
50 SAT 23 Jan 11:52:44 11:56:08 42° 99° (E) 11:59:30 437.505
NANOSAT C BR1 23 Jan 11:53:28 11:56:15 17° 267° (W) 11:59:05 145.865
DX 1 23 Jan 11:54:18 11:58:03 28° 96° (E) 12:01:45 434.975-435.025
BY70-1 23 Jan 11:56:38 11:58:12 13° 295° (WNW) 11:59:45 436.1900
AIST 1 23 Jan 12:00:20 12:00:34 10° 83° (E) 12:00:47
AO-7 23 Jan 12:03:29 12:07:06 14° 43° (NE) 12:10:43 29.400- 29.500
BUGSAT 1 23 Jan 12:06:09 12:09:52 35° 262° (W) 12:13:35 437.445
CUBEBUG 1 23 Jan 12:10:44 12:14:57 52° 287° (WNW) 12:19:07 437.445
CUSAT 1 23 Jan 12:17:01 12:23:47 30° 66° (ENE) 12:30:02 437.405
AO-85 23 Jan 12:26:21 12:30:50 43° 118° (ESE) 12:35:01 145.980
Cosmos 2491 23 Jan 12:34:46 12:43:35 73° 80° (E) 12:52:23 435.465 / 435.565
AISAT 23 Jan 12:35:57 12:40:08 44° 289° (WNW) 12:44:17 437.250
YUBILEINY 23 Jan 12:40:40 12:48:17 34° 84° (E) 12:55:54 435.215
Oscar 19 23 Jan 12:43:32 12:48:42 67° 258° (WSW) 12:53:54 437.125/150
TISAT 1 23 Jan 12:53:34 12:57:11 28° 96° (E) 13:00:47 437.305
VELOX 1 23 Jan 13:09:46 13:13:09 22° 294° (WNW) 13:16:31 145.980
SPROUT 23 Jan 13:13:24 13:16:50 24° 292° (WNW) 13:20:17 437.525
UKube-1 23 Jan 13:22:31 13:26:36 42° 289° (WNW) 13:30:39 .
Gurwin Techsat 1B 23 Jan 13:24:24 13:29:34 53° 260° (W) 13:34:47 435.225
50 SAT 23 Jan 13:27:28 13:28:57 12° 295° (WNW) 13:30:25 437.505
DX 1 23 Jan 13:30:31 13:34:09 26° 293° (WNW) 13:37:45 434.975-435.025
AIST 1 23 Jan 13:33:10 13:37:31 68° 280° (W) 13:41:51
BEESAT 23 Jan 13:33:26 13:36:23 16° 92° (E) 13:39:20 436.000
ITAMSAT 1 23 Jan 13:34:05 13:38:53 40° 69° (ENE) 13:43:42 435.822/435.867
SWISSCUBE 23 Jan 13:35:05 13:38:29 19° 93° (E) 13:41:51 437.505
SO-50 23 Jan 13:36:39 13:37:05 10° 32° (NNE) 13:37:31 436.795
DANDE 23 Jan 13:38:42 13:46:17 44° 73° (ENE) 13:54:08 436.750
Cosmos 2504 23 Jan 13:43:38 13:51:43 47° 89° (E) 13:59:19 435.465 / 435.565
AO-7 23 Jan 13:49:58 13:58:03 56° 65° (ENE) 14:06:10 29.400- 29.500
CUSAT 1 23 Jan 13:58:25 14:06:17 63° 266° (W) 14:13:16 437.405
AO-85 23 Jan 14:07:37 14:11:22 24° 313° (NW) 14:14:55 145.980
O/OREOS (USA 219) 23 Jan 14:16:24 14:19:58 22° 57° (ENE) 14:23:31 437.305
TISAT 1 23 Jan 14:29:19 14:32:42 24° 292° (WNW) 14:36:05 437.305
Cosmos 2491 23 Jan 14:33:00 14:39:30 24° 280° (W) 14:46:02 435.465 / 435.565
MOZHAYETS 4 23 Jan 14:35:41 14:39:18 22° 94° (E) 14:42:54
YUBILEINY 23 Jan 14:36:06 14:44:39 54° 284° (WNW) 14:53:18 435.215
ITUPSAT 1 23 Jan 14:37:22 14:42:10 70° 102° (ESE) 14:46:58 437.325
BEESAT 3 23 Jan 14:56:16 15:00:00 47° 118° (ESE) 15:03:47 437.485
BEESAT 23 Jan 15:09:48 15:14:29 55° 288° (WNW) 15:19:09 436.000
SWISSCUBE 23 Jan 15:11:53 15:16:30 47° 289° (WNW) 15:21:04 437.505
SO-50 23 Jan 15:14:10 15:18:36 53° 53° (NE) 15:22:58 436.795
ITAMSAT 1 23 Jan 15:14:16 15:18:28 25° 265° (W) 15:22:41 435.822/435.867
DANDE 23 Jan 15:21:28 15:29:00 45° 269° (W) 15:36:44 436.750
GOMX 1 23 Jan 15:25:51 15:29:25 19° 65° (ENE) 15:32:53 467.674
CUBESAT XI-V 23 Jan 15:31:50 15:33:59 13° 89° (E) 15:36:07 437.345
STARS 23 Jan 15:35:45 15:37:25 12° 90° (E) 15:39:04 437.465
BRITE-PL 23 Jan 15:37:15 15:42:48 56° 73° (ENE) 15:48:14 437.365/2234.400
Cosmos 2504 23 Jan 15:37:20 15:45:10 38° 287° (WNW) 15:52:35 435.465 / 435.565
AO-7 23 Jan 15:43:44 15:51:06 34° 263° (W) 15:58:32 29.400- 29.500
CUSAT 1 23 Jan 15:44:18 15:46:29 11° 285° (WNW) 15:48:38 437.405
BEESAT 2 23 Jan 15:48:23 15:52:19 77° 120° (ESE) 15:56:19 435.950
DOVE 4 23 Jan 15:49:35 15:51:01 11° 62° (ENE) 15:52:27 437.250
NOAA 15 23 Jan 15:51:48 15:54:55 16° 60° (ENE) 15:58:03 137.62
Cubesat XI-IV 23 Jan 15:55:17 15:58:26 16° 60° (ENE) 16:01:35 437.490
O/OREOS (USA 219) 23 Jan 15:55:18 15:59:29 38° 254° (WSW) 16:03:39 437.305
M-CUBED/EXP-1 PRIME 23 Jan 15:55:22 15:58:24 33° 103° (ESE) 16:01:22 437.505
MOZHAYETS 4 23 Jan 16:12:16 16:16:33 38° 290° (WNW) 16:20:50
ITUPSAT 1 23 Jan 16:16:53 16:19:25 14° 299° (WNW) 16:21:56 437.325
KKS-1 23 Jan 16:26:23 16:30:50 84° 288° (WNW) 16:35:15 437.445
NOAA 18 23 Jan 16:27:16 16:30:59 19° 60° (ENE) 16:34:40 137.9125
AUBIESAT-1 23 Jan 16:28:46 16:32:06 79° 107° (ESE) 16:35:23 437.475
HORYU 2 23 Jan 16:33:49 16:38:13 90° 184° (S) 16:42:40 437.375
BEESAT 3 23 Jan 16:35:06 16:37:52 18° 316° (NW) 16:40:39 437.485
YUBILEINY 23 Jan 16:43:34 16:43:55 10° 308° (NW) 16:44:16 435.215
CUTE-I 23 Jan 16:48:29 16:53:33 47° 70° (ENE) 16:58:37 437.470
CINEMA 3 23 Jan 16:54:07 16:54:10 10° 62° (ENE) 16:54:14 145.822/145.860
SO-50 23 Jan 16:55:43 16:58:37 17° 250° (WSW) 17:01:29 436.795
GOMX 1 23 Jan 17:01:48 17:07:05 59° 260° (W) 17:12:07 467.674
LilacSat-2 23 Jan 17:04:59 17:08:44 68° 75° (ENE) 17:12:31 437.200
CUBESAT XI-V 23 Jan 17:07:08 17:11:47 64° 286° (WNW) 17:16:22 437.345
STARS 23 Jan 17:09:50 17:14:09 62° 287° (WNW) 17:18:27 437.465
BRITE-PL 23 Jan 17:17:16 17:21:30 21° 268° (W) 17:25:42 437.365/2234.400
DOVE 4 23 Jan 17:23:11 17:28:07 85° 256° (WSW) 17:32:48 437.250
HO-68 23 Jan 17:27:41 17:33:47 31° 61° (ENE) 17:39:54 435.675
BEESAT 2 23 Jan 17:28:33 17:30:37 14° 320° (NW) 17:32:42 435.950
NOAA 15 23 Jan 17:28:46 17:34:03 73° 257° (WSW) 17:39:24 137.62
M-CUBED/EXP-1 PRIME 23 Jan 17:30:58 17:32:36 13° 300° (WNW) 17:34:13 437.505
GONETS M04 23 Jan 17:32:07 17:36:47 16° 75° (ENE) 17:41:27
Cubesat XI-IV 23 Jan 17:32:35 17:37:53 72° 257° (WSW) 17:43:13 437.490
CANX-2 23 Jan 17:40:07 17:43:18 21° 67° (ENE) 17:46:32 2200.000
SEEDS 23 Jan 17:44:49 17:46:59 14° 63° (ENE) 17:49:08 437.485
Cosmos 2499 23 Jan 17:48:24 17:54:48 26° 84° (E) 18:00:52 435.465 / 435.565
NOAA 18 23 Jan 18:05:39 18:11:06 65° 258° (WSW) 18:16:34 137.9125
AIST 2 23 Jan 18:17:38 18:21:40 57° 119° (ESE) 18:25:46 435.215
CINEMA 3 23 Jan 18:26:21 18:30:43 79° 257° (WSW) 18:34:58 145.822/145.860
CUTE-I 23 Jan 18:29:43 18:33:48 22° 267° (W) 18:37:54 437.470
STRAND 1 23 Jan 18:40:49 18:45:30 35° 97° (E) 18:50:11 437.568
CUTE 1.7 + AOD 2 23 Jan 18:44:31 18:48:47 90° 270° (W) 18:53:05 437.475
CUBEBUG 2 23 Jan 18:57:00 19:01:00 50° 73° (ENE) 19:05:01 437.445
FUNcube-1 23 Jan 19:03:55 19:06:59 21° 67° (ENE) 19:10:07 145.935
HO-68 23 Jan 19:14:08 19:21:09 54° 259° (W) 19:28:12 435.675
CANX-2 23 Jan 19:15:02 19:18:55 35° 263° (W) 19:22:52 2200.000
COMPASS 1 23 Jan 19:16:17 19:20:28 90° 206° (SSW) 19:24:43 437.405
UWE-3 23 Jan 19:17:40 19:21:40 53° 74° (ENE) 19:25:44 435.000/436.395/437.385
SEEDS 23 Jan 19:18:02 19:22:11 56° 260° (W) 19:26:22 437.485
GONETS M04 23 Jan 19:23:25 19:32:07 83° 95° (E) 19:40:56
AAUSAT CUBESAT 2 23 Jan 19:23:48 19:27:58 84° 79° (E) 19:32:12 437.432
ZACube-1 23 Jan 19:28:13 19:32:06 41° 72° (ENE) 19:36:02 437.345
Cosmos 2499 23 Jan 19:39:06 19:47:22 64° 281° (W) 19:55:03 435.465 / 435.565
Oscar 11 23 Jan 19:57:15 20:01:33 76° 76° (ENE) 20:05:53 145.826/435.025
AIST 2 23 Jan 19:57:39 20:00:30 18° 318° (NW) 20:03:23 435.215
DELFI C3 23 Jan 20:09:02 20:12:37 32° 71° (ENE) 20:16:14 145.870
STRAND 1 23 Jan 20:20:09 20:24:34 29° 294° (WNW) 20:28:58 437.568
RS-15 23 Jan 20:23:44 20:27:34 12° 92° (E) 20:31:26 29.354- 29.394
CUBEBUG 2 23 Jan 20:35:59 20:37:56 13° 269° (W) 20:39:53 437.445
FUNcube-1 23 Jan 20:39:19 20:43:02 32° 263° (W) 20:46:49 145.935
HUMSAT D 23 Jan 20:42:13 20:46:05 42° 72° (ENE) 20:50:02 437.325/437.525
PRISM 23 Jan 20:42:38 20:46:16 30° 97° (E) 20:49:52 437.425
ISS 23 Jan 20:43:55 20:47:08 65° 142° (SE) 20:50:22 145.825
TIGRISAT 23 Jan 20:51:35 20:53:27 12° 90° (E) 20:55:20 435.000
UWE-3 23 Jan 20:56:46 20:58:29 12° 270° (W) 21:00:12 435.000/436.395/437.385
AO-85 23 Jan 20:57:34 21:01:13 35° 50° (NE) 21:04:48 145.980
ESTCUBE 1 23 Jan 21:01:54 21:03:12 11° 60° (ENE) 21:04:30 437.505/2401.250
ZACube-1 23 Jan 21:06:02 21:08:36 16° 268° (W) 21:11:11 437.345
ANTELSAT 23 Jan 21:06:36 21:09:52 19° 93° (E) 21:13:10 437.575/2403.000
GONETS M04 23 Jan 21:23:41 21:30:03 22° 297° (WNW) 21:36:29
CUBEBUG 1 23 Jan 21:32:50 21:34:57 13° 62° (ENE) 21:37:03 437.445
Cosmos 2499 23 Jan 21:39:26 21:42:01 12° 301° (WNW) 21:44:34 435.465 / 435.565
DELFI C3 23 Jan 21:44:34 21:47:29 19° 267° (W) 21:50:26 145.870
AISAT 23 Jan 21:58:27 22:01:16 17° 64° (ENE) 22:04:05 437.250
BY70-1 23 Jan 22:08:49 22:11:52 71° 259° (WSW) 22:15:09 436.1900
UNISAT 6 23 Jan 22:13:53 22:18:22 80° 283° (WNW) 22:22:56 437.425
PRISM 23 Jan 22:18:12 22:21:24 22° 293° (WNW) 22:24:34 437.425
HUMSAT D 23 Jan 22:19:25 22:21:54 16° 268° (W) 22:24:26 437.325/437.525
ISS 23 Jan 22:21:09 22:23:51 23° 340° (NNW) 22:26:34 145.825
JAS-2 23 Jan 22:25:00 22:32:10 51° 99° (E) 22:39:44 435.910
RS-15 23 Jan 22:25:42 22:37:13 62° 113° (ESE) 22:49:12 29.354- 29.394
TIGRISAT 23 Jan 22:26:05 22:30:31 64° 285° (WNW) 22:35:01 435.000
50 SAT 23 Jan 22:28:08 22:30:42 19° 68° (ENE) 22:33:17 437.505
VELOX 1 23 Jan 22:30:13 22:34:12 33° 69° (ENE) 22:38:10 145.980
SPROUT 23 Jan 22:31:09 22:34:33 24° 67° (ENE) 22:37:57 437.525
ESTCUBE 1 23 Jan 22:34:47 22:39:18 82° 255° (WSW) 22:43:54 437.505/2401.250
PCSat 23 Jan 22:36:15 22:40:16 21° 106° (ESE) 22:44:17 145.827
AO-85 23 Jan 22:38:30 22:41:21 20° 248° (WSW) 22:44:13 145.980
ANTELSAT 23 Jan 22:42:31 22:46:43 40° 288° (WNW) 22:50:59 437.575/2403.000
UKube-1 23 Jan 22:42:38 22:45:19 16° 64° (ENE) 22:48:00 .
DX 1 23 Jan 22:50:04 22:53:42 26° 67° (ENE) 22:57:19 434.975-435.025
YUBILEINY 23 Jan 22:50:50 22:56:07 17° 59° (ENE) 23:01:22 435.215
QB50P1 23 Jan 22:55:13 22:58:49 26° 96° (E) 23:02:23 145.935-145.965
POLYITAN 1 23 Jan 23:00:30 23:04:16 30° 97° (E) 23:08:01 437.675
QB50P2 23 Jan 23:01:49 23:05:41 33° 97° (E) 23:09:32 145.880/145.840
CUBEBUG 1 23 Jan 23:06:20 23:10:42 63° 259° (W) 23:15:04 437.445
BEESAT 3 23 Jan 23:12:52 23:16:30 32° 50° (NE) 23:20:06 437.485
POPSAT HIP 1 23 Jan 23:22:08 23:26:17 52° 100° (E) 23:30:25 437.405
DUCHIFAT 1 23 Jan 23:28:05 23:32:11 52° 100° (E) 23:36:18 145.980
AISAT 23 Jan 23:33:01 23:37:20 49° 260° (W) 23:41:39 437.250
NANOSAT C BR1 23 Jan 23:35:37 23:39:50 71° 101° (ESE) 23:44:02 145.865
Cosmos 2504 23 Jan 23:38:05 23:41:37 14° 60° (ENE) 23:45:06 435.465 / 435.565
AIST 1 23 Jan 23:40:10 23:43:54 28° 75° (ENE) 23:47:34
Cosmos 2491 23 Jan 23:44:24 23:49:04 16° 75° (ENE) 23:53:44 435.465 / 435.565
TISAT 1 23 Jan 23:45:38 23:48:52 22° 67° (ENE) 23:52:07 437.305
BUGSAT 1 23 Jan 23:47:18 23:50:51 29° 97° (E) 23:54:25 437.445
ISS 23 Jan 23:59:18 00:01:12 14° 0° (N) 00:03:05 145.825
50 SAT 24 Jan 00:00:40 00:03:44 26° 264° (W) 00:06:49 437.505
BEESAT 2 24 Jan 00:05:53 00:09:50 48° 53° (NE) 00:13:45 435.950
SPROUT 24 Jan 00:06:36 00:10:20 30° 264° (W) 00:14:05 437.525
VELOX 1 24 Jan 00:07:07 00:10:40 23° 265° (W) 00:14:15 145.980
JAS-2 24 Jan 00:10:26 00:16:55 36° 295° (WNW) 00:23:50 435.910
ITUPSAT 1 24 Jan 00:11:30 00:11:51 10° 58° (ENE) 00:12:12 437.325
UKube-1 24 Jan 00:16:47 00:20:58 48° 260° (W) 00:25:10 .
PCSat 24 Jan 00:17:56 00:23:13 55° 304° (NW) 00:28:34 145.827
DX 1 24 Jan 00:25:58 00:29:46 29° 263° (W) 00:33:36 434.975-435.025
PHONESAT 2.4 24 Jan 00:30:12 00:32:14 31° 164° (SSE) 00:34:16 2401.200-2431.200
QB50P1 24 Jan 00:30:58 00:34:30 26° 292° (WNW) 00:38:03 145.935-145.965
POLYITAN 1 24 Jan 00:36:31 00:39:54 23° 293° (WNW) 00:43:17 437.675
QB50P2 24 Jan 00:38:03 00:41:16 21° 293° (WNW) 00:44:29 145.880/145.840
RS-15 24 Jan 00:38:46 00:50:13 48° 318° (NW) 01:02:06 29.354- 29.394
BEESAT 24 Jan 00:40:02 00:43:28 20° 64° (ENE) 00:46:56 436.000
SWISSCUBE 24 Jan 00:41:45 00:45:29 23° 65° (ENE) 00:49:14 437.505
YUBILEINY 24 Jan 00:45:38 00:54:31 79° 82° (E) 01:03:16 435.215
BEESAT 3 24 Jan 00:50:44 00:53:58 24° 247° (WSW) 00:57:12 437.485
Oscar 19 24 Jan 00:54:56 00:59:50 42° 98° (E) 01:04:40 437.125/150
POPSAT HIP 1 24 Jan 00:59:16 01:01:37 15° 296° (WNW) 01:03:58 437.405
DUCHIFAT 1 24 Jan 01:05:08 01:07:26 15° 296° (WNW) 01:09:44 145.980
NANOSAT C BR1 24 Jan 01:13:42 01:14:58 11° 298° (WNW) 01:16:14 145.865
AIST 1 24 Jan 01:17:59 01:21:19 23° 272° (W) 01:24:38
CUSAT 1 24 Jan 01:19:04 01:23:14 21° 80° (E) 01:28:04 437.405
TISAT 1 24 Jan 01:20:38 01:24:20 30° 263° (W) 01:28:03 437.305
BUGSAT 1 24 Jan 01:22:55 01:26:05 22° 292° (WNW) 01:29:15 437.445
Cosmos 2504 24 Jan 01:28:59 01:36:21 81° 81° (E) 01:43:30 435.465 / 435.565
Cosmos 2491 24 Jan 01:35:45 01:44:27 83° 95° (E) 01:53:13 435.465 / 435.565
ISS 24 Jan 01:35:48 01:38:32 24° 20° (NNE) 01:41:15 145.825
MOZHAYETS 4 24 Jan 01:37:58 01:41:28 22° 66° (ENE) 01:45:01
Gurwin Techsat 1B 24 Jan 01:40:07 01:45:23 60° 101° (E) 01:50:37 435.225
AUBIESAT-1 24 Jan 01:43:28 01:44:07 10° 58° (ENE) 01:44:46 437.475
ITUPSAT 1 24 Jan 01:44:07 01:48:52 83° 75° (ENE) 01:53:40 437.325
BEESAT 2 24 Jan 01:44:46 01:47:13 16° 250° (WSW) 01:49:40 435.950
ITAMSAT 1 24 Jan 01:48:08 01:50:41 14° 90° (E) 01:53:13 435.822/435.867
AO-7 24 Jan 01:53:27 01:58:01 15° 89° (E) 02:02:33 29.400- 29.500
PHONESAT 2.4 24 Jan 02:03:39 02:05:51 62° 181° (S) 02:08:03 2401.200-2431.200
PCSat 24 Jan 02:06:06 02:07:53 11° 325° (NW) 02:09:41 145.827
BEESAT 24 Jan 02:16:22 02:20:55 45° 261° (W) 02:25:31 436.000
SWISSCUBE 24 Jan 02:18:36 02:23:01 39° 262° (W) 02:27:30 437.505
STARS 24 Jan 02:33:05 02:34:50 12° 61° (ENE) 02:36:36 437.465
Oscar 19 24 Jan 02:34:45 02:38:53 25° 295° (WNW) 02:43:01 437.125/150
CUBESAT XI-V 24 Jan 02:35:29 02:38:02 15° 62° (ENE) 02:40:35 437.345
AIST 2 24 Jan 02:38:37 02:42:40 41° 52° (NE) 02:46:42 435.215
M-CUBED/EXP-1 PRIME 24 Jan 02:40:42 02:44:53 55° 69° (ENE) 02:48:46 437.505
YUBILEINY 24 Jan 02:44:05 02:50:13 22° 281° (WNW) 02:56:20 435.215
DANDE 24 Jan 02:48:25 02:52:07 30° 86° (E) 02:56:50 436.750
RS-15 24 Jan 02:57:27 03:06:58 25° 351° (N) 03:16:34 29.354- 29.394
CUSAT 1 24 Jan 02:58:45 03:04:14 61° 285° (WNW) 03:11:15 437.405
ISS 24 Jan 03:12:00 03:15:14 62° 219° (SW) 03:18:26 145.825
AUBIESAT-1 24 Jan 03:13:52 03:18:04 77° 252° (WSW) 03:21:59 437.475
MOZHAYETS 4 24 Jan 03:14:08 03:18:23 38° 262° (W) 03:22:41
Gurwin Techsat 1B 24 Jan 03:21:12 03:24:50 19° 298° (WNW) 03:28:29 435.225
KKS-1 24 Jan 03:24:16 03:28:43 89° 256° (WSW) 03:33:11 437.445
Cosmos 2504 24 Jan 03:24:29 03:28:39 16° 282° (WNW) 03:32:46 435.465 / 435.565
ITAMSAT 1 24 Jan 03:25:27 03:30:40 74° 287° (WNW) 03:35:53 435.822/435.867
ITUPSAT 1 24 Jan 03:27:04 03:27:18 10° 271° (W) 03:27:32 437.325
Cosmos 2491 24 Jan 03:36:05 03:42:23 22° 297° (WNW) 03:48:46 435.465 / 435.565
PHONESAT 2.4 24 Jan 03:37:27 03:39:27 29° 197° (SSW) 03:41:27 2401.200-2431.200
AO-7 24 Jan 03:43:33 03:51:59 81° 107° (ESE) 04:00:19 29.400- 29.500
BRITE-PL 24 Jan 03:44:05 03:46:44 15° 89° (E) 03:49:16 437.365/2234.400
STARS 24 Jan 04:06:15 04:10:36 69° 258° (WSW) 04:14:59 437.465
CUBESAT XI-V 24 Jan 04:10:11 04:14:51 65° 259° (W) 04:19:34 437.345
M-CUBED/EXP-1 PRIME 24 Jan 04:17:30 04:19:31 13° 262° (W) 04:21:30 437.505
AIST 2 24 Jan 04:17:45 04:20:52 20° 249° (WSW) 04:23:59 435.215
HORYU 2 24 Jan 04:25:27 04:28:20 17° 93° (E) 04:31:11 437.375
O/OREOS (USA 219) 24 Jan 04:29:20 04:32:48 22° 102° (ESE) 04:36:17 437.305
DANDE 24 Jan 04:31:02 04:34:49 27° 294° (WNW) 04:39:37 436.750
CUSAT 1 24 Jan 04:46:26 04:48:05 11° 308° (NW) 04:49:48 437.405
GOMX 1 24 Jan 05:04:00 05:08:02 37° 97° (E) 05:11:54 467.674
CUTE-I 24 Jan 05:06:07 05:09:42 18° 92° (E) 05:13:18 437.470
ITAMSAT 1 24 Jan 05:08:38 05:09:13 10° 304° (NW) 05:09:48 435.822/435.867
RS-15 24 Jan 05:14:19 05:24:58 31° 26° (NNE) 05:35:23 29.354- 29.394
BRITE-PL 24 Jan 05:21:02 05:25:40 52° 288° (WNW) 05:29:57 437.365/2234.400
DOVE 4 24 Jan 05:22:30 05:25:45 22° 94° (E) 05:28:58 437.250
SO-50 24 Jan 05:30:05 05:33:00 16° 110° (ESE) 05:35:52 436.795
Cosmos 2499 24 Jan 05:30:13 05:36:57 43° 75° (ENE) 05:43:38 435.465 / 435.565
GONETS M04 24 Jan 05:33:32 05:41:50 42° 73° (ENE) 05:50:05
AO-7 24 Jan 05:37:28 05:43:52 25° 307° (NW) 05:50:13 29.400- 29.500
NOAA 15 24 Jan 05:43:47 05:48:49 41° 98° (E) 05:53:46 137.62
Cubesat XI-IV 24 Jan 05:49:33 05:54:40 44° 99° (E) 05:59:46 437.490
STRAND 1 24 Jan 05:56:49 06:01:43 51° 71° (ENE) 06:06:40 437.568
HORYU 2 24 Jan 06:00:49 06:05:06 47° 289° (WNW) 06:09:22 437.375
O/OREOS (USA 219) 24 Jan 06:07:54 06:11:59 35° 299° (WNW) 06:16:06 437.305
LilacSat-2 24 Jan 06:11:57 06:15:50 81° 283° (WNW) 06:19:43 437.200
CINEMA 3 24 Jan 06:20:49 06:24:10 22° 95° (E) 06:27:34 145.822/145.860
NOAA 18 24 Jan 06:27:22 06:32:42 52° 101° (E) 06:38:00 137.9125
CUTE 1.7 + AOD 2 24 Jan 06:30:21 06:32:57 16° 91° (E) 06:35:32 437.475
HO-68 24 Jan 06:41:49 06:47:58 30° 95° (E) 06:54:04 435.675
GOMX 1 24 Jan 06:42:49 06:45:51 19° 295° (WNW) 06:48:48 467.674
CUTE-I 24 Jan 06:44:52 06:50:07 58° 288° (WNW) 06:55:21 437.470
CUBEBUG 2 24 Jan 06:49:30 06:50:34 11° 90° (E) 06:51:39 437.445
CANX-2 24 Jan 06:59:23 07:03:25 38° 97° (E) 07:07:24 2200.000
DOVE 4 24 Jan 06:59:53 07:03:29 29° 291° (WNW) 07:07:05 437.250
COMPASS 1 24 Jan 07:00:12 07:02:29 14° 91° (E) 07:04:44 437.405
SEEDS 24 Jan 07:02:01 07:05:25 23° 94° (E) 07:08:48 437.485
AAUSAT CUBESAT 2 24 Jan 07:07:26 07:09:21 13° 90° (E) 07:11:15 437.432
SO-50 24 Jan 07:08:19 07:12:59 61° 306° (NW) 07:17:37 436.795
UWE-3 24 Jan 07:08:48 07:10:08 11° 90° (E) 07:11:29 435.000/436.395/437.385
PCSat 24 Jan 07:22:46 07:26:57 22° 45° (NE) 07:31:07 145.827
Cosmos 2499 24 Jan 07:23:45 07:29:49 32° 274° (W) 07:35:54 435.465 / 435.565
NOAA 15 24 Jan 07:23:59 07:28:21 27° 295° (WNW) 07:32:42 137.62
RS-15 24 Jan 07:27:28 07:39:55 77° 55° (NE) 07:51:51 29.354- 29.394
Cubesat XI-IV 24 Jan 07:30:12 07:34:28 25° 296° (WNW) 07:38:44 437.490
GONETS M04 24 Jan 07:30:28 07:38:38 44° 273° (W) 07:46:49
PRISM 24 Jan 07:32:17 07:35:37 24° 67° (ENE) 07:38:56 437.425
STRAND 1 24 Jan 07:37:35 07:41:10 19° 267° (W) 07:44:47 437.568
Oscar 11 24 Jan 07:45:42 07:47:58 14° 91° (E) 07:50:13 145.826/435.025
TIGRISAT 24 Jan 07:51:47 07:53:00 11° 61° (ENE) 07:54:14 435.000
CINEMA 3 24 Jan 07:57:36 08:01:20 31° 290° (WNW) 08:05:11 145.822/145.860
CUTE 1.7 + AOD 2 24 Jan 08:04:54 08:09:02 46° 287° (WNW) 08:13:06 437.475
ANTELSAT 24 Jan 08:06:23 08:09:09 17° 65° (ENE) 08:11:56 437.575/2403.000
NOAA 18 24 Jan 08:08:50 08:12:58 23° 298° (WNW) 08:17:06 137.9125
CUBEBUG 2 24 Jan 08:23:13 08:27:36 71° 284° (WNW) 08:32:06 437.445
FUNcube-1 24 Jan 08:26:04 08:30:18 43° 98° (E) 08:34:35 145.935
HO-68 24 Jan 08:29:01 08:35:57 53° 293° (WNW) 08:42:50 435.675
COMPASS 1 24 Jan 08:34:13 08:38:17 48° 287° (WNW) 08:42:18 437.405
CANX-2 24 Jan 08:35:52 08:38:59 20° 294° (WNW) 08:42:05 2200.000
SEEDS 24 Jan 08:37:23 08:41:06 30° 291° (WNW) 08:44:49 437.485
JAS-2 24 Jan 08:40:09 08:43:58 19° 58° (ENE) 08:48:03 435.910
AAUSAT CUBESAT 2 24 Jan 08:41:03 08:45:08 52° 286° (WNW) 08:49:10 437.432
UWE-3 24 Jan 08:42:35 08:46:59 69° 285° (WNW) 08:51:30 435.000/436.395/437.385
ZACube-1 24 Jan 08:51:34 08:56:01 89° 103° (ESE) 09:00:33 437.345
SO-50 24 Jan 08:52:46 08:54:24 12° 326° (NW) 08:56:01 436.795
PRISM 24 Jan 09:07:07 09:10:45 29° 263° (W) 09:14:26 437.425
